TimeCDT,TemperatureF,Dew PointF,Humidity,Sea Level PressureIn,VisibilityMPH,Wind Direction,Wind SpeedMPH,Gust SpeedMPH,PrecipitationIn,Events,Conditions,WindDirDegrees,DateUTC
12:54 AM,54.0,41.0,62,29.96,10.0,North,-9999.0,-,N/A,,Clear,0,2012-11-03 05:54:00
1:54 AM,51.1,39.0,63,29.99,10.0,North,-9999.0,-,N/A,,Clear,0,2012-11-03 06:54:00
2:54 AM,48.9,36.0,61,30.01,10.0,North,10.4,-,N/A,,Unknown,360,2012-11-03 07:54:00
3:54 AM,46.0,35.1,66,30.03,10.0,North,-9999.0,-,N/A,,Clear,0,2012-11-03 08:54:00
4:54 AM,44.1,33.1,65,30.06,10.0,North,-9999.0,-,N/A,,Clear,0,2012-11-03 09:54:00
5:54 AM,43.0,32.0,65,30.09,10.0,North,-9999.0,-,N/A,,Clear,0,2012-11-03 10:54:00
6:54 AM,39.9,32.0,73,30.13,10.0,North,-9999.0,-,N/A,,Clear,0,2012-11-03 11:54:00
7:54 AM,39.0,32.0,76,30.16,10.0,North,-9999.0,-,N/A,,Clear,0,2012-11-03 12:54:00
8:54 AM,43.0,33.1,68,30.19,10.0,North,-9999.0,-,N/A,,Clear,0,2012-11-03 13:54:00
9:54 AM,46.9,33.1,59,30.19,10.0,North,-9999.0,-,N/A,,Clear,0,2012-11-03 14:54:00
10:54 AM,50.0,33.1,52,30.21,9.0,North,-9999.0,-,N/A,,Clear,0,2012-11-03 15:54:00
11:02 AM,51.8,33.8,50,30.21,7.0,North,-9999.0,-,N/A,,Partly Cloudy,0,2012-11-03 16:02:00
11:54 AM,53.1,34.0,48,30.21,10.0,North,11.5,-,N/A,,Clear,360,2012-11-03 16:54:00
12:54 PM,57.0,34.0,42,30.19,10.0,North,12.7,18.4,N/A,,Clear,360,2012-11-03 17:54:00
1:54 PM,61.0,35.1,38,30.17,10.0,North,13.8,18.4,N/A,,Clear,350,2012-11-03 18:54:00
2:54 PM,61.0,35.1,38,30.16,10.0,North,11.5,-,N/A,,Clear,360,2012-11-03 19:54:00
3:54 PM,63.0,35.1,35,30.16,10.0,North,6.9,-,N/A,,Clear,350,2012-11-03 20:54:00
4:54 PM,63.0,34.0,34,30.15,10.0,NNE,10.4,-,N/A,,Clear,20,2012-11-03 21:54:00
5:54 PM,61.0,35.1,38,30.15,10.0,NNE,8.1,-,N/A,,Unknown,20,2012-11-03 22:54:00
6:54 PM,57.0,35.1,44,30.18,10.0,North,6.9,-,N/A,,Clear,10,2012-11-03 23:54:00
7:54 PM,52.0,35.1,53,30.20,10.0,North,4.6,-,N/A,,Clear,10,2012-11-04 00:54:00
8:54 PM,48.9,35.1,59,30.21,10.0,North,3.5,-,N/A,,Clear,10,2012-11-04 01:54:00
9:54 PM,45.0,33.1,63,30.21,10.0,Calm,Calm,-,N/A,,Clear,0,2012-11-04 02:54:00
10:54 PM,44.1,34.0,68,30.21,10.0,Calm,Calm,-,N/A,,Clear,0,2012-11-04 03:54:00
11:54 PM,43.0,34.0,71,30.22,10.0,Calm,Calm,-,N/A,,Clear,0,2012-11-04 04:54:00